This is the latest recevied weather packets stored in our database for station/object HA3YA-WX. If no packets are shown the sender has not sent any weather packets the latest 10 day(s).
| Time | Temp. | Humidity | Pressure | Rain* | Wind** | Luminosity | Snow |
|---|---|---|---|---|---|---|---|
| 1788117954 | 22.78° C | 85% | 1002 hPa | - | - | - | - |
| 1788116754 | 23.33° C | 85% | 1002 hPa | - | - | - | - |
| 1788114955 | 23.33° C | 81% | 1002 hPa | - | - | - | - |
| 1788114354 | 23.89° C | 79% | 1002 hPa | - | - | - | - |
| 1788113754 | 24.44° C | 80% | 1002 hPa | - | - | - | - |
| 1788113155 | 24.44° C | 79% | 1002 hPa | - | - | - | - |
| 1788112555 | 25° C | 79% | 1001.9 hPa | - | - | - | - |
| 1788111355 | 25° C | 80% | 1001.9 hPa | - | - | - | - |
| 1788110754 | 25.56° C | 80% | 1001.9 hPa | - | - | - | - |
| 1788110154 | 26.11° C | 79% | 1001.9 hPa | - | - | - | - |
| 1788109555 | 26.67° C | 78% | 1001.9 hPa | - | - | - | - |
| 1788108955 | 27.22° C | 74% | 1001.9 hPa | - | - | - | - |
| 1788107754 | 28.33° C | 73% | 1001 hPa | - | - | - | - |
| 1788107154 | 29.44° C | 72% | 1001 hPa | - | - | - | - |
| 1788105354 | 31.67° C | 67% | 1002 hPa | - | - | - | - |
| 1788104754 | 31.67° C | 66% | 1002 hPa | - | - | - | - |
| 1788104155 | 31.67° C | 64% | 1002 hPa | - | - | - | - |
| 1788103554 | 31.67° C | 66% | 1002 hPa | - | - | - | - |
| 1788102954 | 32.22° C | 69% | 1002.2 hPa | - | - | - | - |
| 1788102354 | 32.22° C | 69% | 1002.2 hPa | - | - | - | - |
| 1788101755 | 31.67° C | 69% | 1002 hPa | - | - | - | - |
| 1788101155 | 32.22° C | 64% | 1002 hPa | - | - | - | - |
| 1788100554 | 32.22° C | 63% | 1002 hPa | - | - | - | - |
| 1788099954 | 31.67° C | 65% | 1002 hPa | - | - | - | - |
| 1788099354 | 31.67° C | 65% | 1002 hPa | - | - | - | - |
* Rain since midnight (hover to see other rain measurements)
** Current wind speed in m/s (hover to see current wind gust speed)